Temperature
22 19 19 19 20 21 22 22 21 23 24 23 22 22 22 22 22 22 22 21 21 21 21 21 21 21 20 20 20 19 19 18 18 18 17 17 17 17 17 16 16 16 17 16
20 19 20 21 22 22 22 21 22 23 24 23 22 22 22 22 22 22 22 21 21 21 21 21 20 20 20 20 20 19 19 18 18 18 17 17 17 17 16 16 16 16 16 16
20 21 22 23 22 22 22 21 22 22 23 22 22 21 21 21 22 22 22 22 21 21 21 20 20 20 20 20 19 19 19 18 18 17 17 16 16 16 16 16 16 16 16 16
20 22 23 23 22 23 21 23 23 23 21 20 22 19 20 20 20 21 21 21 21 20 21 21 20 20 20 19 19 19 18 18 18 17 17 16 16 16 16 16 16 16 16 16
21 22 22 22 23 24 22 23 23 23 21 20 20 19 19 19 19 20 20 20 21 21 21 21 20 20 20 19 19 18 18 18 17 17 16 16 16 16 16 16 16 16 15 15
21 23 23 23 24 24 24 23 21 19 18 19 19 19 18 18 19 19 19 20 20 20 20 20 20 20 19 19 18 18 18 17 17 16 16 16 16 16 16 15 15 15 15 15
21 22 23 24 23 23 22 20 18 18 17 18 19 19 18 19 20 20 19 19 20 20 20 20 19 19 19 18 18 18 17 17 17 16 16 16 16 16 16 15 15 15 15 15
19 20 22 23 22 21 21 19 18 18 18 18 19 19 18 19 20 20 20 19 19 19 19 19 19 19 19 18 18 18 17 17 16 16 16 16 16 16 15 15 15 15 15 15
19 20 22 23 23 22 21 20 19 18 18 18 18 18 19 19 19 19 19 19 19 19 19 19 19 19 19 18 18 18 17 17 16 16 16 15 15 15 15 15 15 15 15 15
19 20 21 23 23 22 21 20 17 17 17 18 18 18 18 18 18 18 18 18 18 19 18 18 18 18 18 18 18 17 17 17 16 16 15 15 15 15 15 15 15 14 14 14
19 19 20 21 21 21 21 20 18 16 16 17 17 17 19 18 18 18 18 18 18 18 18 18 18 18 18 18 17 17 17 16 16 15 15 15 15 15 15 14 14 14 14 14
18 17 18 19 20 21 21 20 18 17 17 16 16 17 19 18 17 17 18 18 18 18 18 18 18 17 17 17 17 17 16 16 16 15 15 15 14 14 14 14 14 14 14 14
18 16 17 18 18 19 20 20 18 16 16 16 16 17 18 17 17 17 18 18 18 18 18 17 17 17 17 17 17 16 16 16 16 15 15 14 14 14 14 14 14 14 14 14
18 16 16 17 17 18 19 19 19 17 16 16 17 17 17 17 17 17 17 18 17 17 17 17 17 17 17 16 16 16 16 16 15 15 14 14 14 14 14 13 13 13 13 13
16 16 17 17 19 19 19 20 19 18 17 17 17 17 17 16 16 17 17 17 17 16 16 16 16 16 16 16 16 16 16 15 15 15 14 14 14 13 13 13 13 13 13 13
14 16 16 17 19 19 19 19 19 18 18 17 17 17 16 16 17 16 16 17 16 16 16 16 16 16 16 16 15 15 15 15 15 15 14 14 13 13 13 13 13 13 13 13
14 15 15 16 18 18 17 17 17 17 17 17 16 16 15 15 15 15 16 16 16 16 16 16 16 16 16 16 15 15 15 15 14 14 14 14 13 13 13 13 13 13 13 12
14 14 13 14 16 16 16 17 18 17 16 16 16 15 15 15 15 15 16 16 16 16 16 16 16 16 16 15 15 15 14 14 14 14 14 13 13 13 13 13 13 13 12 12
14 14 13 13 15 15 16 17 16 16 15 15 15 15 15 15 15 15 16 16 16 16 16 16 16 15 15 15 15 14 14 14 13 13 13 13 13 13 13 13 13 12 12 12
14 13 13 14 15 15 15 16 16 16 14 14 14 14 14 14 14 14 15 16 16 16 15 15 15 15 15 15 14 14 14 13 13 13 13 13 13 13 13 13 12 12 12 12
14 13 13 13 14 14 14 15 16 15 14 14 14 14 14 13 14 14 15 15 15 15 15 15 15 15 14 14 14 14 14 13 13 13 13 13 13 13 13 12 12 12 12 12
13 13 13 12 13 13 14 14 13 13 14 14 14 14 14 14 14 14 14 14 15 15 15 15 14 14 14 14 14 14 13 13 13 13 13 13 13 13 12 12 12 12 12 12
12 12 12 12 12 12 13 13 14 14 13 14 14 14 14 14 13 14 14 14 14 14 14 14 14 13 13 13 14 14 13 13 13 13 13 13 13 12 12 12 12 12 12 12
12 12 11 12 12 12 13 13 13 14 14 14 14 14 14 13 13 13 13 13 13 13 13 13 13 13 13 13 13 13 13 13 13 13 13 13 12 12 12 12 12 12 12 12
11 11 11 11 12 12 13 13 13 13 14 14 14 14 14 13 13 13 13 13 13 13 13 13 13 13 13 13 13 13 13 12 12 12 12 12 12 12 12 12 12 12 12 12
10 10 10 10 11 11 12 13 13 13 13 13 13 13 13 13 12 12 13 13 12 13 13 13 13 12 12 12 12 12 12 12 12 12 12 12 12 12 12 12 12 12 12 12
Wind_Speed
2 3 6 9 10 8 6 6 9 11 7 3 4 5 5 5 6 6 6 7 9 9 7 8 8 9 9 8 9 9 8 7 6 4 3 3 3 2 2 2 3 3 3 3
1 7 13 10 8 6 6 8 10 9 5 2 2 4 4 5 7 8 9 9 9 8 6 7 7 7 8 9 9 9 9 8 6 5 4 3 3 2 2 1 1 2 3 3
9 9 8 7 7 8 9 8 8 6 4 2 1 4 3 2 2 5 7 9 10 12 12 11 9 8 8 8 9 9 8 8 7 6 4 4 3 2 1 0 0 0 2 2
7 9 6 7 9 9 9 8 7 5 1 3 0 3 5 3 3 6 8 8 9 11 11 11 11 11 10 9 8 8 7 7 6 7 6 6 4 2 2 2 1 1 1 1
7 6 6 7 9 7 7 6 4 3 2 1 2 1 5 2 4 7 8 8 10 11 12 13 12 12 11 10 9 8 7 6 6 6 6 6 4 2 1 1 1 1 1 0
9 7 6 7 7 6 4 1 3 4 3 1 4 3 5 4 7 7 7 7 8 9 10 11 10 10 9 9 8 8 8 6 5 6 6 6 5 4 3 2 2 1 1 1
7 8 6 4 3 4 1 3 3 4 3 5 3 3 6 6 5 7 8 8 8 9 10 10 10 9 9 9 8 8 9 6 5 6 6 5 6 5 5 4 3 2 1 1
3 7 5 3 5 5 4 7 6 4 4 4 3 3 4 4 1 2 5 6 7 8 8 10 11 11 10 10 9 8 8 6 6 6 5 4 5 4 4 4 4 3 3 3
4 6 5 4 3 5 3 4 7 6 2 1 4 3 4 4 3 3 5 6 6 5 6 7 8 10 10 9 8 9 8 6 5 5 5 4 4 4 3 3 3 2 2 2
4 4 5 4 2 1 5 5 5 4 3 3 4 3 4 3 2 3 5 7 7 6 6 6 8 9 9 9 8 8 7 6 4 4 4 4 3 3 3 3 3 2 2 2
2 3 4 2 2 4 0 1 3 3 4 4 4 5 5 7 6 5 5 6 7 8 8 6 6 9 9 8 8 7 6 5 4 3 3 3 3 3 3 3 3 3 2 2
1 3 2 5 5 4 4 4 5 4 3 3 3 7 5 5 5 4 5 5 6 7 7 6 7 8 8 8 8 8 7 6 5 4 3 3 3 3 3 3 2 2 3 2
2 4 1 6 6 4 2 0 2 4 3 3 3 6 2 1 1 2 5 6 5 7 7 5 5 7 8 8 8 8 8 7 5 4 4 4 3 3 3 3 2 3 3 2
3 3 5 6 6 3 2 2 1 3 3 3 6 6 4 3 1 2 3 5 5 6 6 5 4 6 8 8 8 8 8 7 6 5 5 4 4 4 3 3 3 3 3 3
4 1 2 5 6 4 3 4 3 2 5 6 6 5 5 5 5 4 5 6 6 6 5 5 4 5 7 7 6 7 8 7 6 6 6 5 4 3 3 3 3 3 3 3
3 1 2 4 4 2 2 3 1 1 2 3 3 4 4 3 2 3 5 7 8 7 6 6 5 6 7 8 7 6 7 7 7 6 6 5 4 3 3 3 3 3 3 3
1 2 1 4 4 2 1 1 0 1 2 3 4 4 1 1 2 3 4 5 6 6 6 5 5 6 7 8 8 8 7 6 7 6 6 5 4 4 3 3 4 4 3 3
5 2 2 1 2 2 3 0 2 2 0 0 1 1 1 2 2 2 3 4 5 4 4 5 6 6 6 5 6 7 6 6 7 6 5 5 5 4 3 3 4 3 3 3
7 6 3 2 2 2 2 2 2 1 2 3 2 2 2 1 2 1 1 3 4 4 4 4 5 6 6 6 7 6 6 6 6 6 6 6 5 5 4 4 3 3 3 3
4 5 4 2 2 3 4 6 6 1 1 4 3 2 1 2 1 3 3 2 2 1 2 4 4 4 4 4 6 7 7 7 7 6 6 6 5 5 4 4 3 3 3 3
3 3 2 2 2 3 3 6 4 1 4 5 2 1 1 2 4 4 2 2 2 2 2 5 5 4 4 4 6 7 6 7 6 6 6 6 5 5 4 3 2 3 3 3
1 1 1 1 1 3 5 3 1 4 4 3 2 2 0 0 1 1 2 3 3 2 2 4 5 3 3 4 6 7 6 5 5 6 6 6 5 5 4 3 2 3 4 3
1 2 2 3 3 3 1 1 3 3 2 2 1 1 2 2 2 2 2 3 3 4 3 3 4 3 2 3 6 7 5 5 6 6 6 5 5 3 3 4 4 3 3 3
3 2 1 1 2 4 3 3 3 2 2 1 1 1 3 3 2 2 2 2 2 3 3 2 4 3 2 3 4 5 5 5 6 6 5 5 4 3 3 3 3 4 4 4
3 2 2 1 3 4 5 5 5 3 3 1 1 2 3 4 2 1 1 2 2 2 1 2 4 3 3 3 3 4 5 6 6 5 4 4 4 4 3 2 2 3 4 6
2 1 1 3 3 2 4 5 4 4 3 2 3 3 3 3 3 2 1 1 2 2 2 2 2 2 2 3 3 3 4 6 6 4 4 3 4 4 3 3 1 2 1 3
Wind_Direction
210 130 223 229 214 210 232 263 274 271 268 232 236 240 227 191 174 172 169 162 163 165 163 155 152 150 146 145 142 141 139 142 139 138 137 143 156 151 143 165 173 165 158 156
12 241 233 232 236 231 245 265 276 289 279 224 211 254 241 195 192 184 172 168 168 159 145 149 147 148 154 155 150 144 145 147 148 151 149 148 145 156 167 174 158 152 152 159
212 242 230 224 241 244 252 244 254 263 303 326 79 315 291 242 191 186 176 170 170 168 163 162 159 158 157 157 159 156 155 151 149 141 128 123 96 79 72 47 330 217 167 167
242 254 247 235 237 224 250 244 240 250 282 284 215 258 276 239 211 196 192 179 178 177 170 166 164 163 163 164 158 150 153 148 149 145 144 146 150 163 198 192 203 252 205 179
251 248 246 239 239 226 235 236 230 246 218 314 333 175 272 230 224 217 200 185 181 181 175 169 169 169 166 161 157 149 143 146 149 150 153 154 158 174 165 144 141 221 253 188
254 263 231 228 240 236 230 17 14 29 65 290 253 194 266 230 219 206 190 185 180 177 171 167 165 158 155 153 150 145 143 146 150 149 151 155 158 152 143 148 166 211 249 265
276 275 258 226 250 288 78 88 22 352 351 252 245 188 249 249 216 196 177 175 172 163 165 159 156 153 151 150 151 151 154 154 153 150 154 161 162 160 166 175 184 194 208 230
251 276 260 226 200 212 208 152 165 207 232 276 315 233 262 281 203 134 147 155 159 155 161 163 161 156 157 159 156 154 157 158 162 160 166 164 161 167 173 177 182 192 205 210
213 258 276 264 221 169 187 205 181 159 207 240 267 272 313 7 44 97 134 142 157 152 151 157 159 157 157 158 160 159 158 158 158 166 164 158 157 159 164 173 172 182 192 182
181 255 277 281 7 285 178 174 104 134 179 241 263 247 241 261 260 184 160 170 170 155 148 155 166 162 162 163 161 152 150 156 153 156 169 163 159 159 157 152 156 161 154 145
152 190 297 330 215 239 227 107 122 133 161 175 242 262 223 207 212 204 186 173 172 164 162 158 163 160 157 153 153 150 146 137 138 160 162 144 152 152 146 147 163 164 155 147
72 129 259 265 266 233 176 173 144 158 233 182 197 258 254 205 204 195 171 160 165 156 156 147 149 154 149 149 153 154 152 155 166 167 150 149 146 147 148 150 156 153 150 155
83 104 29 331 333 354 43 93 147 142 139 176 200 261 285 267 194 173 154 149 149 140 138 133 133 153 156 159 162 162 164 169 170 159 154 151 153 159 164 158 153 148 146 148
110 117 168 209 237 251 273 287 202 127 163 211 222 238 281 286 246 222 166 150 145 145 144 135 137 160 166 165 166 170 172 174 168 165 166 166 177 184 177 164 157 152 147 144
72 119 245 253 265 248 244 265 238 200 193 203 228 229 240 235 216 208 178 154 146 145 148 156 162 158 161 163 169 177 178 175 168 165 169 181 183 178 170 161 155 147 142 140
59 135 325 301 298 302 313 327 297 275 242 221 223 261 260 220 187 181 171 160 157 163 171 176 174 166 164 170 175 182 181 178 167 164 172 177 172 170 173 165 151 142 136 130
140 121 98 278 300 2 331 328 173 206 268 200 234 251 236 107 159 183 177 169 166 173 180 185 181 178 176 175 175 181 185 172 163 165 168 169 170 171 177 165 146 147 149 134
170 153 157 256 6 222 232 130 100 117 254 336 132 162 147 201 215 192 162 162 175 187 196 195 184 180 178 172 167 168 166 165 165 164 165 167 163 160 161 150 149 155 158 154
171 157 146 142 185 252 281 320 330 286 289 22 36 33 32 62 79 340 215 176 190 196 196 194 179 172 168 165 161 156 158 160 161 167 170 169 163 162 162 165 165 167 158 154
98 119 131 157 181 225 266 306 317 176 274 351 17 28 357 87 124 254 255 203 165 173 157 150 152 147 154 165 158 155 162 163 169 172 172 167 165 166 171 178 176 171 161 160
38 53 129 183 211 251 308 319 360 137 261 296 301 244 162 180 220 235 220 166 144 153 164 149 149 157 171 169 157 157 159 170 175 169 164 164 168 172 173 173 170 160 149 139
142 122 167 143 186 261 330 28 78 239 264 270 301 306 295 73 88 148 156 150 133 123 123 139 147 164 173 164 155 159 169 173 165 163 166 171 174 177 167 155 152 147 146 140
84 197 197 185 206 256 271 223 257 249 249 277 264 266 124 97 113 131 125 129 135 135 132 128 140 147 159 163 159 165 180 170 162 161 165 168 171 171 161 158 160 159 157 153
327 356 61 27 324 308 310 332 325 287 253 253 181 149 128 116 112 116 129 126 119 123 140 135 133 142 185 181 163 169 175 167 160 166 169 167 165 164 163 165 169 167 172 170
310 356 19 327 317 337 341 345 348 357 27 46 90 88 109 116 135 140 146 122 116 103 130 142 151 168 194 179 158 166 167 159 158 167 172 173 170 168 164 162 178 177 190 185
308 275 223 251 277 275 291 316 2 17 26 48 82 56 74 103 109 101 102 100 113 114 105 103 123 147 173 164 160 170 167 161 161 171 183 185 174 169 165 150 92 44 154 185
Height
1481 1488 1493 1489 1487 1488 1489 1492 1493 1483 1475 1478 1481 1481 1479 1478 1479 1480 1482 1484 1486 1487 1490 1492 1493 1495 1497 1499 1500 1501 1503 1505 1506 1507 1508 1509 1510 1511 1513 1514 1515 1515 1515 1515
1487 1489 1480 1479 1480 1483 1487 1492 1490 1481 1473 1476 1481 1481 1478 1477 1478 1479 1481 1483 1484 1486 1488 1491 1493 1494 1496 1497 1498 1500 1502 1503 1505 1506 1507 1508 1509 1510 1512 1512 1513 1514 1514 1514
1486 1479 1473 1477 1480 1483 1485 1488 1487 1484 1477 1475 1481 1487 1482 1478 1477 1478 1479 1480 1482 1483 1485 1488 1490 1492 1494 1495 1497 1498 1500 1502 1504 1505 1506 1508 1509 1510 1510 1511 1511 1512 1512 1513
1479 1472 1472 1475 1476 1478 1485 1475 1475 1476 1485 1491 1485 1501 1487 1480 1477 1476 1477 1478 1480 1481 1483 1485 1488 1490 1492 1494 1495 1497 1499 1501 1502 1504 1504 1505 1506 1507 1508 1509 1510 1511 1511 1511
1475 1469 1470 1473 1471 1470 1473 1467 1470 1474 1482 1491 1489 1498 1493 1481 1480 1475 1475 1476 1477 1478 1480 1483 1485 1487 1490 1492 1494 1496 1498 1500 1501 1502 1503 1504 1505 1506 1507 1508 1508 1509 1509 1510
1468 1463 1464 1464 1462 1463 1464 1469 1473 1480 1489 1503 1493 1497 1496 1483 1476 1473 1473 1474 1475 1477 1479 1482 1484 1487 1489 1491 1493 1495 1496 1498 1499 1500 1502 1503 1503 1504 1505 1506 1506 1507 1507 1508
1472 1465 1460 1459 1464 1463 1467 1484 1501 1505 1510 1505 1488 1492 1491 1473 1469 1469 1470 1471 1473 1475 1478 1480 1483 1485 1487 1489 1491 1493 1495 1496 1497 1499 1500 1501 1502 1503 1503 1504 1504 1505 1505 1505
1482 1479 1462 1458 1462 1468 1469 1480 1503 1512 1513 1504 1489 1492 1483 1469 1466 1467 1469 1471 1472 1474 1477 1480 1481 1483 1486 1488 1490 1491 1493 1495 1496 1497 1498 1499 1500 1501 1502 1502 1503 1503 1503 1503
1479 1476 1458 1455 1455 1460 1469 1476 1477 1494 1497 1505 1497 1487 1476 1468 1467 1468 1469 1471 1472 1474 1477 1479 1480 1482 1485 1487 1489 1490 1492 1493 1494 1496 1497 1498 1498 1499 1499 1500 1501 1501 1501 1501
1467 1473 1461 1455 1454 1456 1461 1467 1482 1494 1505 1508 1497 1490 1487 1476 1472 1469 1469 1470 1472 1474 1476 1478 1480 1481 1483 1486 1488 1490 1491 1492 1493 1495 1496 1496 1496 1497 1498 1498 1498 1498 1499 1499
1463 1472 1468 1462 1463 1465 1465 1470 1477 1489 1493 1503 1506 1496 1470 1469 1468 1468 1467 1468 1469 1471 1473 1476 1477 1479 1482 1484 1487 1489 1490 1491 1492 1493 1493 1494 1495 1495 1496 1496 1496 1497 1497 1498
1463 1472 1476 1468 1458 1454 1460 1466 1475 1489 1493 1493 1498 1492 1463 1463 1463 1464 1465 1466 1468 1470 1472 1474 1476 1478 1480 1483 1485 1486 1488 1490 1491 1492 1492 1493 1493 1494 1494 1494 1494 1495 1496 1496
1463 1474 1484 1479 1473 1463 1463 1463 1468 1476 1486 1491 1495 1486 1462 1462 1462 1463 1464 1465 1467 1469 1471 1472 1474 1476 1478 1480 1483 1485 1487 1488 1489 1490 1491 1491 1492 1492 1492 1492 1493 1493 1494 1495
1460 1473 1481 1485 1479 1470 1468 1465 1464 1473 1486 1486 1482 1476 1468 1465 1464 1464 1464 1464 1466 1468 1470 1471 1472 1474 1477 1479 1481 1483 1485 1486 1487 1488 1489 1490 1490 1490 1491 1491 1492 1492 1493 1493
1463 1473 1470 1468 1464 1462 1463 1462 1461 1466 1470 1476 1472 1470 1466 1464 1463 1463 1463 1463 1465 1467 1469 1470 1471 1473 1475 1477 1479 1481 1483 1484 1485 1486 1487 1488 1489 1489 1490 1490 1491 1491 1492 1492
1466 1471 1470 1468 1461 1460 1463 1460 1460 1462 1464 1466 1467 1467 1461 1460 1460 1460 1461 1462 1463 1465 1467 1469 1471 1472 1473 1475 1477 1479 1480 1482 1483 1484 1486 1487 1487 1488 1489 1489 1490 1491 1491 1491
1468 1472 1475 1475 1464 1463 1472 1465 1463 1464 1462 1463 1467 1465 1460 1460 1459 1459 1459 1460 1461 1462 1465 1467 1468 1470 1471 1473 1474 1476 1478 1480 1481 1483 1484 1485 1486 1487 1487 1488 1489 1490 1490 1490
1466 1471 1477 1477 1473 1480 1473 1461 1459 1461 1462 1460 1460 1459 1458 1458 1458 1458 1458 1459 1460 1461 1463 1464 1465 1467 1469 1471 1473 1474 1475 1477 1479 1481 1482 1483 1485 1486 1486 1487 1488 1488 1489 1489
1457 1466 1475 1479 1480 1475 1467 1462 1461 1462 1463 1460 1460 1458 1458 1457 1457 1458 1457 1457 1458 1459 1460 1462 1464 1465 1467 1468 1471 1473 1473 1475 1477 1479 1481 1482 1483 1484 1485 1485 1486 1487 1488 1488
1457 1461 1471 1475 1477 1479 1471 1461 1457 1459 1465 1461 1459 1458 1457 1456 1461 1459 1456 1456 1457 1458 1459 1460 1463 1464 1465 1466 1468 1470 1471 1473 1475 1477 1479 1480 1482 1483 1483 1484 1485 1486 1487 1487
1467 1469 1472 1474 1476 1472 1467 1460 1457 1469 1469 1460 1458 1457 1456 1456 1457 1456 1455 1455 1456 1457 1458 1459 1460 1462 1463 1464 1466 1467 1469 1471 1473 1475 1477 1479 1480 1482 1482 1483 1484 1485 1486 1487
1471 1474 1475 1475 1477 1477 1465 1462 1466 1466 1461 1459 1457 1456 1455 1454 1454 1453 1453 1453 1454 1454 1456 1457 1458 1459 1461 1463 1465 1465 1467 1469 1472 1473 1475 1477 1479 1480 1481 1482 1483 1484 1485 1486
1470 1471 1471 1472 1474 1468 1464 1464 1463 1461 1460 1458 1457 1456 1454 1454 1453 1453 1453 1453 1454 1454 1455 1456 1457 1458 1460 1462 1463 1464 1466 1468 1470 1471 1473 1475 1477 1478 1480 1481 1482 1483 1484 1485
1468 1466 1468 1469 1467 1465 1463 1462 1461 1459 1457 1456 1456 1455 1454 1453 1454 1453 1453 1453 1454 1454 1455 1456 1456 1457 1459 1461 1462 1463 1465 1467 1468 1469 1472 1474 1475 1477 1478 1480 1481 1482 1483 1484
1470 1468 1470 1469 1467 1464 1462 1461 1459 1458 1456 1456 1456 1455 1454 1454 1454 1454 1454 1454 1454 1455 1455 1456 1456 1457 1458 1460 1461 1462 1464 1465 1467 1468 1470 1472 1474 1475 1477 1478 1480 1481 1482 1482
1471 1471 1471 1471 1468 1466 1464 1461 1460 1459 1457 1456 1456 1456 1455 1454 1454 1455 1455 1455 1455 1455 1455 1455 1456 1457 1458 1459 1460 1461 1463 1464 1466 1467 1468 1470 1472 1474 1475 1477 1478 1479 1481 1482